Starlink 5688

operational
NORAD ID: 55479 Int'l Des: 2023-015 Owner: SPXS Country: US Constellation: starlink
LEOCIRCULAR

关于 Starlink 5688

正在加载描述...

实时位置

正在加载3D地球...

即将过境

高度历史

Altitude vs Time

uPlot chart will show altitude changes over time

两行轨道根数

1 55479U 23015AG 26062.15544028 -.00000197 00000-0 51073-6 0 9996
2 55479 43.0054 349.1243 0001319 270.7603 89.3088 15.02533866169914
Epoch: Mar 3, 2026 • Age: 20 hours

当前状态

高度 565.3 km
速度 7.58 km/s
星下点 -27.05°S, 141.54°W
发射日期 Feb 2, 2023
运行时间 3 years
类型 internet

技术详情

分类 Payload
质量 305.00 kg
干质量 290.00 kg
总质量 305.00 kg
长度 0.20 m
直径 2.80 m
跨度 9.00 m
形状 Box + pan
制造商 SPXS
平台类型 Starlink
阶段状态 In Orbit
所有者/国家 SPXS/US

大型星座

Loading constellations...